User: anonymous   Login
Location: Carrizalito
(10.3833°N, 67.0217°W)
Time: 19:48:45
(UTC+00:00)
Language:

ZACube-1 - Orbit

View from above orbital plane
View from above orbital plane
View from above satellite
View from above satellite

Ground track
Ground track

The orbit data is extracted from the following two-line orbital elements,

1 39417U 13066B   24151.44782272  .00003933  00000-0  41375-3 0  9990
2 39417  97.7330 107.8190 0049560 217.4763 142.2996 14.89080134568948
Epoch (UTC): 30 May 2024 10:44:51
Eccentricity: 0.0049560
inclination: 97.7330°
perigee height: 566 km
apogee height: 635 km
right ascension of ascending node: 107.8190°
argument of perigee: 217.4763°
revolutions per day: 14.89080134
mean anomaly at epoch: 142.2996°
orbit number at epoch: 56894

The dashed part of the orbit path shows where the satellite is in the earth's shadow,  

DLR